Weather History for Big Piney, WY

Change the Weather History Date:

Wednesday, August 21, 2013

  Actual Average Record
Temperature  
Mean Temperature 66 °F 59 °F  
Max Temperature 81 °F 78 °F 87 °F (2010)
Min Temperature 51 °F 39 °F 27 °F (1980)
Degree Days  
Heating Degree Days 0 6  
Month to date heating degree days 53 95  
Since 1 June heating degree days 294 517  
Since 1 July heating degree days 77 212  
Cooling Degree Days 1 0  
Month to date cooling degree days 7 12  
Year to date cooling degree days 84 36  
Since 1 June cooling degree days 84 36  
Growing Degree Days 14 (Base 50)    
Moisture  
Dew Point 47 °F    
Average Humidity 59    
Maximum Humidity 89    
Minimum Humidity 28    
Precipitation  
Precipitation T in 0.02 in 0.25 in (1989)
Month to date precipitation 0.08 0.48  
Year to date precipitation 2.67 4.45  
Sea Level Pressure  
Sea Level Pressure 30.06 in    
Wind  
Wind Speed 6 mph (NW)    
Max Wind Speed 21 mph    
Max Gust Speed 25 mph    
Visibility 10 miles    
Events Rain , Thunderstorm    
T = Trace of Precipitation, MM = Missing Value Source: NWS Daily Summary

Daily Weather History Graph

Daily Weather History Graph

Search for Another Location

Airport:

Trip Planner

Search our weather history database for the weather conditions in past years. The results will help you decide how hot, cold, wet, or windy it might be!

Date:

Astronomy

Aug. 21, 2013 Rise Set
Actual Time 6:33 AM MDT 8:12 PM MDT
Civil Twilight 6:04 AM MDT 8:41 PM MDT
Nautical Twilight 5:27 AM MDT 9:17 PM MDT
Astronomical Twilight 4:49 AM MDT 9:56 PM MDT
Moon 8:19 PM MDT (8/21) 7:20 AM MDT (8/21)
Length of Visible Light 14h 37m
Length of Day
13h 38m
Full, 99% of the Moon is Illuminated
Aug 21
Full
Aug 28
Last Quarter
Sep 5
New
Sep 12
First Quarter
Sep 19
Full

Hourly Weather History & Observations

Time (MDT) Temp. Dew Point Humidity Pressure Visibility Wind Dir Wind Speed Gust Speed Precip Events Conditions
12:53 AM 57.0 °F 48.9 °F 74% 29.97 in 10.0 mi North 10.4 mph - N/A   Clear
1:53 AM 55.0 °F 50.0 °F 83% 30.03 in 10.0 mi East 6.9 mph - N/A   Mostly Cloudy
2:53 AM 57.0 °F 50.0 °F 77% 30.00 in 10.0 mi ENE 5.8 mph - N/A   Overcast
3:53 AM 54.0 °F 50.0 °F 86% 30.01 in 10.0 mi Calm Calm - N/A   Clear
4:53 AM 54.0 °F 48.9 °F 83% 30.01 in 10.0 mi North 8.1 mph - N/A   Clear
5:53 AM 55.0 °F 48.0 °F 77% 30.02 in 10.0 mi East 6.9 mph - N/A   Clear
6:53 AM 52.0 °F 48.0 °F 86% 30.06 in 10.0 mi SSW 3.5 mph - N/A   Clear
7:53 AM 55.0 °F 48.0 °F 77% 30.07 in 10.0 mi Calm Calm - N/A   Overcast
8:53 AM 57.0 °F 48.9 °F 74% 30.07 in 10.0 mi Calm Calm - N/A   Overcast
9:53 AM 59.0 °F 51.1 °F 75% 30.07 in 10.0 mi Calm Calm - N/A   Mostly Cloudy
10:53 AM 64.0 °F 51.1 °F 63% 30.06 in 10.0 mi Calm Calm - 0.00 in   Overcast
11:53 AM 71.1 °F 46.9 °F 42% 30.04 in 10.0 mi NW 5.8 mph - N/A   Mostly Cloudy
12:53 PM 73.0 °F 46.9 °F 39% 30.03 in 10.0 mi WNW 9.2 mph - 0.00 in   Mostly Cloudy
1:53 PM 75.9 °F 42.1 °F 30% 30.01 in 10.0 mi Variable 3.5 mph - N/A   Scattered Clouds
2:26 PM 73.4 °F 46.4 °F 38% 30.30 in 10.0 mi WSW 9.2 mph - N/A Thunderstorm Scattered Clouds
2:53 PM 73.0 °F 44.1 °F 35% 30.01 in 10.0 mi SW 10.4 mph - N/A Thunderstorm Partly Cloudy
3:10 PM 71.6 °F 44.6 °F 38% 30.30 in 10.0 mi West 9.2 mph - N/A   Mostly Cloudy
3:53 PM 69.1 °F 50.0 °F 51% 30.02 in 10.0 mi WSW 8.1 mph - 0.00 in Rain Light Rain
4:53 PM 73.9 °F 41.0 °F 30% 29.98 in 10.0 mi West 5.8 mph - 0.00 in   Partly Cloudy
5:53 PM 77.0 °F 41.0 °F 28% 29.95 in 10.0 mi SW 8.1 mph - 0.00 in   Clear
6:53 PM 71.1 °F 46.9 °F 42% 29.99 in 10.0 mi WNW 5.8 mph - N/A   Mostly Cloudy
7:10 PM 69.8 °F 46.4 °F 43% 30.26 in 10.0 mi NNW 13.8 mph - N/A Thunderstorm Thunderstorm
7:25 PM 71.6 °F 44.6 °F 38% 30.26 in 10.0 mi North 11.5 mph - N/A   Partly Cloudy
7:53 PM 69.1 °F 46.0 °F 44% 30.00 in 10.0 mi NNE 13.8 mph - N/A   Partly Cloudy
8:53 PM 64.9 °F 46.9 °F 52% 30.03 in 10.0 mi NNE 10.4 mph - N/A   Mostly Cloudy
9:53 PM 64.0 °F 46.0 °F 52% 30.06 in 10.0 mi NE 8.1 mph - N/A   Mostly Cloudy
10:53 PM 61.0 °F 48.0 °F 62% 30.05 in 10.0 mi NW 4.6 mph - N/A   Mostly Cloudy
11:53 PM 57.9 °F 46.9 °F 67% 30.04 in 10.0 mi North 8.1 mph - N/A   Clear